Time,TemperatureF,DewpointF,PressureIn,WindDirection,WindDirectionDegrees,WindSpeedMPH,WindSpeedGustMPH,Humidity,HourlyPrecipIn,Conditions,Clouds,dailyrainin,SoftwareType,DateUTC
2013-02-01 00:01:00,44.2,36.5,30.36,WSW,254,0.0,0.0,74,0.00,,,0.00,meteohub,2013-02-01 06:01:00,
2013-02-01 00:06:00,44.4,37.4,30.36,WSW,254,0.0,0.0,76,0.00,,,0.00,meteohub,2013-02-01 06:06:00,
2013-02-01 00:12:00,44.2,36.9,30.36,WSW,254,0.0,0.0,75,0.00,,,0.00,meteohub,2013-02-01 06:12:00,
2013-02-01 00:17:00,44.1,36.3,30.36,WSW,254,0.0,0.0,74,0.00,,,0.00,meteohub,2013-02-01 06:17:00,
2013-02-01 00:22:00,44.1,36.0,30.36,WSW,254,0.0,0.0,73,0.00,,,0.00,meteohub,2013-02-01 06:22:00,
2013-02-01 00:27:00,43.9,36.1,30.36,WSW,254,0.0,0.0,74,0.00,,,0.00,meteohub,2013-02-01 06:27:00,
2013-02-01 00:32:00,43.9,36.5,30.36,WSW,254,0.0,0.0,75,0.00,,,0.00,meteohub,2013-02-01 06:32:00,
2013-02-01 00:37:00,43.7,36.7,30.36,WSW,254,0.0,0.0,76,0.00,,,0.00,meteohub,2013-02-01 06:37:00,
2013-02-01 00:42:00,43.7,36.3,30.35,WSW,254,0.0,0.0,75,0.00,,,0.00,meteohub,2013-02-01 06:42:00,
2013-02-01 00:47:00,43.7,36.7,30.36,WSW,254,0.0,0.0,76,0.00,,,0.00,meteohub,2013-02-01 06:47:00,
2013-02-01 00:52:00,43.7,37.0,30.35,WSW,254,0.0,0.0,77,0.00,,,0.00,meteohub,2013-02-01 06:52:00,
2013-02-01 00:57:00,43.5,36.5,30.35,WSW,254,0.0,0.0,76,0.00,,,0.00,meteohub,2013-02-01 06:57:00,
2013-02-01 01:02:00,43.7,37.2,30.35,WSW,254,0.0,0.0,78,0.00,,,0.00,meteohub,2013-02-01 07:02:00,
2013-02-01 01:06:00,43.7,37.9,30.35,WSW,254,0.0,0.0,80,0.00,,,0.00,meteohub,2013-02-01 07:06:00,
2013-02-01 01:12:00,43.7,37.9,30.35,WSW,254,0.0,0.0,80,0.00,,,0.00,meteohub,2013-02-01 07:12:00,
2013-02-01 01:17:00,43.5,37.4,30.35,WSW,254,0.0,0.0,79,0.00,,,0.00,meteohub,2013-02-01 07:17:00,
2013-02-01 01:21:00,43.5,37.4,30.35,WSW,254,0.0,0.0,79,0.00,,,0.00,meteohub,2013-02-01 07:21:00,
2013-02-01 01:27:00,43.5,37.4,30.35,WSW,254,0.0,0.0,79,0.00,,,0.00,meteohub,2013-02-01 07:27:00,
2013-02-01 01:32:00,43.5,37.8,30.35,WSW,254,0.0,0.0,80,0.00,,,0.00,meteohub,2013-02-01 07:32:00,
2013-02-01 01:37:00,43.5,38.5,30.35,WSW,254,0.0,0.0,82,0.00,,,0.00,meteohub,2013-02-01 07:37:00,
2013-02-01 01:42:00,43.3,37.9,30.35,WSW,254,0.0,0.0,81,0.00,,,0.00,meteohub,2013-02-01 07:42:00,
2013-02-01 01:47:00,43.2,37.8,30.35,WSW,254,0.0,0.0,81,0.00,,,0.00,meteohub,2013-02-01 07:47:00,
2013-02-01 01:51:00,43.2,37.8,30.35,WSW,254,0.0,0.0,81,0.00,,,0.00,meteohub,2013-02-01 07:51:00,
2013-02-01 01:56:00,43.0,37.9,30.35,WSW,254,0.0,0.0,82,0.00,,,0.00,meteohub,2013-02-01 07:56:00,
2013-02-01 02:01:00,43.0,37.9,30.34,WSW,254,0.0,0.0,82,0.00,,,0.00,meteohub,2013-02-01 08:01:00,
2013-02-01 02:06:00,42.8,37.8,30.34,WSW,254,0.0,0.0,82,0.00,,,0.00,meteohub,2013-02-01 08:06:00,
2013-02-01 02:12:00,42.8,37.9,30.34,WSW,254,0.0,0.0,83,0.00,,,0.00,meteohub,2013-02-01 08:12:00,
2013-02-01 02:16:00,42.8,37.9,30.35,WSW,254,0.0,0.0,83,0.00,,,0.00,meteohub,2013-02-01 08:16:00,
2013-02-01 02:22:00,42.8,38.3,30.34,WSW,254,0.0,0.0,84,0.00,,,0.00,meteohub,2013-02-01 08:22:00,
2013-02-01 02:26:00,42.8,37.9,30.34,WSW,254,0.0,0.0,83,0.00,,,0.00,meteohub,2013-02-01 08:26:00,
2013-02-01 02:32:00,42.8,38.3,30.34,WSW,254,0.0,0.0,84,0.00,,,0.00,meteohub,2013-02-01 08:32:00,
2013-02-01 02:37:00,42.6,38.1,30.34,WSW,254,0.0,0.0,84,0.00,,,0.00,meteohub,2013-02-01 08:37:00,
2013-02-01 02:42:00,42.8,38.7,30.34,WSW,254,0.0,0.0,85,0.00,,,0.00,meteohub,2013-02-01 08:42:00,
2013-02-01 02:47:00,42.6,38.5,30.35,WSW,254,0.0,0.0,85,0.00,,,0.00,meteohub,2013-02-01 08:47:00,
2013-02-01 02:52:00,42.6,38.5,30.34,WSW,254,0.0,0.0,85,0.00,,,0.00,meteohub,2013-02-01 08:52:00,
2013-02-01 02:57:00,42.6,38.5,30.34,WSW,254,0.0,0.0,85,0.00,,,0.00,meteohub,2013-02-01 08:57:00,
2013-02-01 03:02:00,42.6,38.7,30.34,WSW,254,0.0,0.0,86,0.00,,,0.00,meteohub,2013-02-01 09:02:00,
2013-02-01 03:07:00,42.6,38.7,30.34,WSW,254,0.0,0.0,86,0.00,,,0.00,meteohub,2013-02-01 09:07:00,
2013-02-01 03:12:00,42.6,38.7,30.34,WSW,254,0.0,0.0,86,0.00,,,0.00,meteohub,2013-02-01 09:12:00,
2013-02-01 03:17:00,42.6,38.7,30.33,WSW,254,0.0,0.0,86,0.00,,,0.00,meteohub,2013-02-01 09:17:00,
2013-02-01 03:22:00,42.6,38.7,30.34,WSW,254,0.0,0.0,86,0.00,,,0.00,meteohub,2013-02-01 09:22:00,
2013-02-01 03:27:00,42.6,39.0,30.34,WSW,254,0.0,0.0,87,0.00,,,0.00,meteohub,2013-02-01 09:27:00,
2013-02-01 03:32:00,42.6,39.0,30.34,WSW,254,0.0,0.0,87,0.00,,,0.00,meteohub,2013-02-01 09:32:00,
2013-02-01 03:37:00,42.4,38.8,30.34,WSW,254,0.0,0.0,87,0.00,,,0.00,meteohub,2013-02-01 09:37:00,
2013-02-01 03:42:00,42.4,38.8,30.35,WSW,254,0.0,0.0,87,0.00,,,0.00,meteohub,2013-02-01 09:42:00,
2013-02-01 03:47:00,42.4,38.8,30.35,WSW,254,0.0,0.0,87,0.00,,,0.00,meteohub,2013-02-01 09:47:00,
2013-02-01 03:52:00,42.4,38.8,30.35,WSW,254,0.0,0.0,87,0.00,,,0.00,meteohub,2013-02-01 09:52:00,
2013-02-01 03:57:00,42.3,38.7,30.35,WSW,254,0.0,0.0,87,0.00,,,0.00,meteohub,2013-02-01 09:57:00,
2013-02-01 04:02:00,42.3,39.0,30.35,WSW,254,0.0,0.0,88,0.00,,,0.00,meteohub,2013-02-01 10:02:00,
2013-02-01 04:07:00,42.1,38.8,30.35,WSW,254,0.0,0.0,88,0.00,,,0.00,meteohub,2013-02-01 10:07:00,
2013-02-01 04:12:00,42.1,38.8,30.34,WSW,254,0.0,0.0,88,0.00,,,0.00,meteohub,2013-02-01 10:12:00,
2013-02-01 04:17:00,41.9,38.7,30.35,WSW,254,0.0,0.0,88,0.00,,,0.00,meteohub,2013-02-01 10:17:00,
2013-02-01 04:22:00,41.7,38.7,30.35,WSW,254,0.0,0.0,89,0.00,,,0.00,meteohub,2013-02-01 10:22:00,
2013-02-01 04:27:00,41.7,38.7,30.35,WSW,254,0.0,0.0,89,0.00,,,0.00,meteohub,2013-02-01 10:27:00,
2013-02-01 04:32:00,41.7,38.7,30.35,WSW,254,0.0,0.0,89,0.00,,,0.00,meteohub,2013-02-01 10:32:00,
2013-02-01 04:36:00,41.7,38.7,30.35,WSW,254,0.0,0.0,89,0.00,,,0.00,meteohub,2013-02-01 10:36:00,
2013-02-01 04:42:00,41.7,38.7,30.35,WSW,254,0.0,0.0,89,0.00,,,0.00,meteohub,2013-02-01 10:42:00,
2013-02-01 04:47:00,41.7,39.0,30.35,WSW,254,0.0,0.0,90,0.00,,,0.00,meteohub,2013-02-01 10:47:00,
2013-02-01 04:52:00,41.7,39.0,30.35,WSW,254,0.0,0.0,90,0.00,,,0.00,meteohub,2013-02-01 10:52:00,
2013-02-01 04:57:00,41.7,39.0,30.35,WSW,254,0.0,0.0,90,0.00,,,0.00,meteohub,2013-02-01 10:57:00,
2013-02-01 05:02:00,42.1,39.6,30.35,WSW,254,0.0,0.0,91,0.00,,,0.00,meteohub,2013-02-01 11:02:00,
2013-02-01 05:07:00,42.1,39.4,30.35,WSW,254,0.0,0.0,90,0.00,,,0.00,meteohub,2013-02-01 11:07:00,
2013-02-01 05:12:00,42.1,39.4,30.36,WSW,254,0.0,0.0,90,0.00,,,0.00,meteohub,2013-02-01 11:12:00,
2013-02-01 05:17:00,42.1,39.4,30.37,WSW,254,0.0,0.0,90,0.00,,,0.00,meteohub,2013-02-01 11:17:00,
2013-02-01 05:22:00,42.1,39.0,30.37,WSW,254,0.0,0.0,89,0.00,,,0.00,meteohub,2013-02-01 11:22:00,
2013-02-01 05:27:00,41.7,38.7,30.38,WSW,254,0.0,0.0,89,0.00,,,0.00,meteohub,2013-02-01 11:27:00,
2013-02-01 05:32:00,41.7,38.7,30.37,WSW,254,0.0,0.0,89,0.00,,,0.00,meteohub,2013-02-01 11:32:00,
2013-02-01 05:37:00,41.7,39.0,30.37,WSW,254,0.0,0.0,90,0.00,,,0.00,meteohub,2013-02-01 11:37:00,
2013-02-01 05:42:00,41.7,39.0,30.37,WSW,254,0.0,0.0,90,0.00,,,0.00,meteohub,2013-02-01 11:42:00,
2013-02-01 05:47:00,41.7,39.0,30.38,WSW,254,0.0,0.0,90,0.00,,,0.00,meteohub,2013-02-01 11:47:00,
2013-02-01 05:52:00,41.7,39.0,30.38,WSW,254,0.0,0.0,90,0.00,,,0.00,meteohub,2013-02-01 11:52:00,
2013-02-01 05:57:00,41.7,39.0,30.39,NNE,22,1.0,0.0,90,0.00,,,0.00,meteohub,2013-02-01 11:57:00,
2013-02-01 06:02:00,41.7,39.2,30.39,NNE,24,0.0,3.0,91,0.00,,,0.00,meteohub,2013-02-01 12:02:00,
2013-02-01 06:07:00,41.7,39.2,30.39,NNE,24,0.0,3.0,91,0.00,,,0.00,meteohub,2013-02-01 12:07:00,
2013-02-01 06:12:00,41.7,39.0,30.39,NNE,24,0.0,3.0,90,0.00,,,0.00,meteohub,2013-02-01 12:12:00,
2013-02-01 06:17:00,41.7,39.0,30.40,NNE,24,0.0,0.0,90,0.00,,,0.00,meteohub,2013-02-01 12:17:00,
2013-02-01 06:22:00,41.5,38.5,30.40,NNE,24,0.0,0.0,89,0.00,,,0.00,meteohub,2013-02-01 12:22:00,
2013-02-01 06:27:00,41.5,38.5,30.40,NNE,24,0.0,0.0,89,0.00,,,0.00,meteohub,2013-02-01 12:27:00,
2013-02-01 06:32:00,41.7,39.0,30.40,NNE,24,0.0,0.0,90,0.00,,,0.00,meteohub,2013-02-01 12:32:00,
2013-02-01 06:37:00,41.7,39.0,30.40,NNE,24,0.0,0.0,90,0.00,,,0.00,meteohub,2013-02-01 12:37:00,
2013-02-01 06:42:00,41.7,39.0,30.41,NNE,24,0.0,0.0,90,0.00,,,0.00,meteohub,2013-02-01 12:42:00,
2013-02-01 06:47:00,42.3,39.6,30.41,NNW,342,1.0,2.0,90,0.00,,,0.00,meteohub,2013-02-01 12:47:00,
2013-02-01 06:52:00,42.4,39.7,30.42,NNW,342,0.0,3.0,90,0.00,,,0.00,meteohub,2013-02-01 12:52:00,
2013-02-01 06:57:00,42.4,39.7,30.41,NNW,342,0.0,3.0,90,0.00,,,0.00,meteohub,2013-02-01 12:57:00,
2013-02-01 07:02:00,42.4,39.7,30.41,NNW,342,0.0,3.0,90,0.00,,,0.00,meteohub,2013-02-01 13:02:00,
2013-02-01 07:07:00,42.6,39.9,30.41,NNW,342,0.0,3.0,90,0.00,,,0.00,meteohub,2013-02-01 13:07:00,
2013-02-01 07:12:00,43.0,39.9,30.41,NNW,342,0.0,2.0,89,0.00,,,0.00,meteohub,2013-02-01 13:12:00,
2013-02-01 07:17:00,43.2,40.1,30.41,NNW,342,0.0,2.0,89,0.00,,,0.00,meteohub,2013-02-01 13:17:00,
2013-02-01 07:22:00,43.5,40.3,30.42,NNW,342,0.0,1.0,88,0.00,,,0.00,meteohub,2013-02-01 13:22:00,
2013-02-01 07:27:00,43.7,40.1,30.42,NNW,342,0.0,0.0,87,0.00,,,0.00,meteohub,2013-02-01 13:27:00,
2013-02-01 07:32:00,43.9,40.3,30.42,NNW,342,0.0,0.0,87,0.00,,,0.00,meteohub,2013-02-01 13:32:00,
2013-02-01 07:37:00,43.9,39.9,30.42,NNW,342,0.0,0.0,86,0.00,,,0.00,meteohub,2013-02-01 13:37:00,
2013-02-01 07:42:00,44.1,40.8,30.42,NNW,342,0.0,0.0,88,0.00,,,0.00,meteohub,2013-02-01 13:42:00,
2013-02-01 07:47:00,44.1,40.5,30.41,NNW,342,0.0,0.0,87,0.00,,,0.00,meteohub,2013-02-01 13:47:00,
2013-02-01 07:52:00,44.2,41.2,30.41,NNW,342,0.0,0.0,89,0.00,,,0.00,meteohub,2013-02-01 13:52:00,
2013-02-01 07:57:00,44.4,41.4,30.41,NNW,342,1.0,0.0,89,0.00,,,0.00,meteohub,2013-02-01 13:57:00,
2013-02-01 08:02:00,44.4,41.4,30.40,NNW,342,0.0,1.0,89,0.00,,,0.00,meteohub,2013-02-01 14:02:00,
2013-02-01 08:07:00,44.6,41.5,30.40,NNW,342,0.0,1.0,89,0.00,,,0.00,meteohub,2013-02-01 14:07:00,
2013-02-01 08:12:00,45.0,42.3,30.41,NNW,342,0.0,1.0,90,0.00,,,0.00,meteohub,2013-02-01 14:12:00,
2013-02-01 08:17:00,45.3,42.3,30.41,NNW,342,0.0,1.0,89,0.00,,,0.00,meteohub,2013-02-01 14:17:00,
2013-02-01 08:22:00,45.9,42.8,30.41,SW,227,0.0,1.0,89,0.00,,,0.00,meteohub,2013-02-01 14:22:00,
2013-02-01 08:27:00,46.4,42.8,30.41,SW,226,0.0,2.0,87,0.00,,,0.00,meteohub,2013-02-01 14:27:00,
2013-02-01 08:32:00,46.9,42.6,30.41,SE,142,3.0,3.0,85,0.00,,,0.00,meteohub,2013-02-01 14:32:00,
2013-02-01 08:37:00,47.5,42.3,30.42,SSE,167,1.0,3.0,82,0.00,,,0.00,meteohub,2013-02-01 14:37:00,
2013-02-01 08:42:00,47.8,42.6,30.42,South,171,2.0,4.0,82,0.00,,,0.00,meteohub,2013-02-01 14:42:00,
2013-02-01 08:47:00,47.8,41.9,30.42,South,171,0.0,4.0,80,0.00,,,0.00,meteohub,2013-02-01 14:47:00,
2013-02-01 08:52:00,48.2,42.6,30.42,South,171,0.0,4.0,81,0.00,,,0.00,meteohub,2013-02-01 14:52:00,
2013-02-01 08:57:00,48.7,42.3,30.42,South,171,2.0,3.0,78,0.00,,,0.00,meteohub,2013-02-01 14:57:00,
2013-02-01 09:02:00,49.3,42.8,30.42,South,171,0.0,3.0,78,0.00,,,0.00,meteohub,2013-02-01 15:02:00,
2013-02-01 09:07:00,49.6,43.0,30.43,South,171,0.0,2.0,78,0.00,,,0.00,meteohub,2013-02-01 15:07:00,
2013-02-01 09:12:00,50.2,42.3,30.43,NNE,17,0.0,2.0,74,0.00,,,0.00,meteohub,2013-02-01 15:12:00,
2013-02-01 09:18:00,50.4,42.4,30.43,East,98,1.0,2.0,74,0.00,,,0.00,meteohub,2013-02-01 15:18:00,
2013-02-01 09:22:00,50.5,42.6,30.42,NNE,22,0.0,3.0,74,0.00,,,0.00,meteohub,2013-02-01 15:22:00,
2013-02-01 09:28:00,50.7,43.2,30.43,East,89,1.0,3.0,75,0.00,,,0.00,meteohub,2013-02-01 15:28:00,
2013-02-01 09:33:00,50.7,43.2,30.42,East,86,2.0,5.0,75,0.00,,,0.00,meteohub,2013-02-01 15:33:00,
2013-02-01 09:38:00,50.7,43.2,30.42,ENE,76,3.0,5.0,75,0.00,,,0.00,meteohub,2013-02-01 15:38:00,
2013-02-01 09:43:00,50.9,43.0,30.43,East,94,2.0,5.0,74,0.00,,,0.00,meteohub,2013-02-01 15:43:00,
2013-02-01 09:48:00,51.1,43.2,30.43,ENE,78,1.0,5.0,74,0.00,,,0.00,meteohub,2013-02-01 15:48:00,
2013-02-01 09:53:00,51.4,43.7,30.43,ENE,78,3.0,5.0,75,0.00,,,0.00,meteohub,2013-02-01 15:53:00,
2013-02-01 09:58:00,52.0,43.2,30.43,ENE,69,2.0,3.0,72,0.00,,,0.00,meteohub,2013-02-01 15:58:00,
2013-02-01 10:03:00,52.2,43.3,30.43,ENE,78,3.0,6.0,72,0.00,,,0.00,meteohub,2013-02-01 16:03:00,
2013-02-01 10:08:00,52.7,44.2,30.43,ENE,62,2.0,7.0,73,0.00,,,0.00,meteohub,2013-02-01 16:08:00,
2013-02-01 10:13:00,53.8,43.9,30.43,East,90,2.0,7.0,69,0.00,,,0.00,meteohub,2013-02-01 16:13:00,
2013-02-01 10:18:00,54.0,43.3,30.43,East,88,3.0,7.0,67,0.00,,,0.00,meteohub,2013-02-01 16:18:00,
2013-02-01 10:23:00,54.5,44.2,30.43,East,101,7.0,7.0,68,0.00,,,0.00,meteohub,2013-02-01 16:23:00,
2013-02-01 10:28:00,54.7,43.2,30.43,East,93,3.0,7.0,65,0.00,,,0.00,meteohub,2013-02-01 16:28:00,
2013-02-01 10:33:00,54.9,42.4,30.42,East,79,3.0,7.0,63,0.00,,,0.00,meteohub,2013-02-01 16:33:00,
2013-02-01 10:38:00,55.0,42.3,30.42,ENE,78,2.0,7.0,62,0.00,,,0.00,meteohub,2013-02-01 16:38:00,
2013-02-01 10:43:00,55.8,43.3,30.42,East,85,2.0,6.0,63,0.00,,,0.00,meteohub,2013-02-01 16:43:00,
2013-02-01 10:48:00,56.1,42.8,30.42,ENE,65,1.0,6.0,61,0.00,,,0.00,meteohub,2013-02-01 16:48:00,
2013-02-01 10:53:00,56.3,43.0,30.42,SSE,150,1.0,5.0,61,0.00,,,0.00,meteohub,2013-02-01 16:53:00,
2013-02-01 10:58:00,56.5,43.2,30.42,East,83,3.0,7.0,61,0.00,,,0.00,meteohub,2013-02-01 16:58:00,
2013-02-01 11:03:00,56.7,43.0,30.42,NNE,26,2.0,7.0,60,0.00,,,0.00,meteohub,2013-02-01 17:03:00,
2013-02-01 11:08:00,57.4,43.2,30.42,NNE,32,1.0,7.0,59,0.00,,,0.00,meteohub,2013-02-01 17:08:00,
2013-02-01 11:13:00,57.7,42.6,30.41,North,355,4.0,6.0,57,0.00,,,0.00,meteohub,2013-02-01 17:13:00,
2013-02-01 11:18:00,57.7,42.6,30.42,NE,45,3.0,6.0,57,0.00,,,0.00,meteohub,2013-02-01 17:18:00,
2013-02-01 11:23:00,57.7,41.7,30.41,East,92,5.0,6.0,55,0.00,,,0.00,meteohub,2013-02-01 17:23:00,
2013-02-01 11:28:00,57.7,42.6,30.41,East,94,1.0,7.0,57,0.00,,,0.00,meteohub,2013-02-01 17:28:00,
2013-02-01 11:33:00,58.3,42.6,30.40,NNW,333,4.0,7.0,56,0.00,,,0.00,meteohub,2013-02-01 17:33:00,
2013-02-01 11:38:00,58.6,42.4,30.40,SSE,153,2.0,7.0,55,0.00,,,0.00,meteohub,2013-02-01 17:38:00,
2013-02-01 11:43:00,59.4,43.2,30.40,South,182,0.0,5.0,55,0.00,,,0.00,meteohub,2013-02-01 17:43:00,
2013-02-01 11:48:00,59.9,42.8,30.39,NNW,342,4.0,4.0,53,0.00,,,0.00,meteohub,2013-02-01 17:48:00,
2013-02-01 11:54:00,59.7,42.1,30.39,NE,44,4.0,4.0,52,0.00,,,0.00,meteohub,2013-02-01 17:54:00,
2013-02-01 11:59:00,59.7,43.5,30.39,ENE,70,3.0,6.0,55,0.00,,,0.00,meteohub,2013-02-01 17:59:00,
2013-02-01 12:04:00,59.9,44.6,30.39,ESE,110,4.0,7.0,57,0.00,,,0.00,meteohub,2013-02-01 18:04:00,
2013-02-01 12:09:00,60.1,43.3,30.38,NE,56,1.0,7.0,54,0.00,,,0.00,meteohub,2013-02-01 18:09:00,
2013-02-01 12:14:00,60.4,42.8,30.38,NNE,29,2.0,7.0,52,0.00,,,0.00,meteohub,2013-02-01 18:14:00,
2013-02-01 12:19:00,60.6,43.0,30.38,NW,318,0.0,7.0,52,0.00,,,0.00,meteohub,2013-02-01 18:19:00,
2013-02-01 12:24:00,61.2,43.0,30.38,East,89,2.0,6.0,51,0.00,,,0.00,meteohub,2013-02-01 18:24:00,
2013-02-01 12:29:00,61.2,43.3,30.38,NE,51,4.0,6.0,52,0.00,,,0.00,meteohub,2013-02-01 18:29:00,
2013-02-01 12:34:00,61.5,42.6,30.37,East,82,1.0,6.0,50,0.00,,,0.00,meteohub,2013-02-01 18:34:00,
2013-02-01 12:39:00,61.9,42.4,30.37,North,351,4.0,6.0,49,0.00,,,0.00,meteohub,2013-02-01 18:39:00,
2013-02-01 12:44:00,61.9,42.4,30.37,NNE,23,3.0,7.0,49,0.00,,,0.00,meteohub,2013-02-01 18:44:00,
2013-02-01 12:49:00,61.9,43.5,30.37,East,80,3.0,7.0,51,0.00,,,0.00,meteohub,2013-02-01 18:49:00,
2013-02-01 12:54:00,62.1,42.6,30.37,ENE,67,1.0,8.0,49,0.00,,,0.00,meteohub,2013-02-01 18:54:00,
2013-02-01 12:59:00,62.2,43.3,30.36,ESE,112,2.0,8.0,50,0.00,,,0.00,meteohub,2013-02-01 18:59:00,
2013-02-01 13:04:00,62.2,42.8,30.36,NE,44,2.0,8.0,49,0.00,,,0.00,meteohub,2013-02-01 19:04:00,
2013-02-01 13:09:00,62.6,42.1,30.35,ENE,71,0.0,7.0,47,0.00,,,0.00,meteohub,2013-02-01 19:09:00,
2013-02-01 13:14:00,62.6,42.1,30.35,East,81,2.0,7.0,47,0.00,,,0.00,meteohub,2013-02-01 19:14:00,
2013-02-01 13:19:00,63.0,43.5,30.35,NNE,19,2.0,7.0,49,0.00,,,0.00,meteohub,2013-02-01 19:19:00,
2013-02-01 13:24:00,63.7,42.4,30.35,NNE,17,5.0,6.0,46,0.00,,,0.00,meteohub,2013-02-01 19:24:00,
2013-02-01 13:29:00,63.7,43.2,30.35,North,349,5.0,6.0,47,0.00,,,0.00,meteohub,2013-02-01 19:29:00,
2013-02-01 13:34:00,63.1,41.5,30.35,ESE,119,3.0,6.0,45,0.00,,,0.00,meteohub,2013-02-01 19:34:00,
2013-02-01 13:39:00,63.1,43.7,30.35,ENE,77,2.0,8.0,49,0.00,,,0.00,meteohub,2013-02-01 19:39:00,
2013-02-01 13:44:00,63.7,43.2,30.34,ESE,107,3.0,8.0,47,0.00,,,0.00,meteohub,2013-02-01 19:44:00,
2013-02-01 13:49:00,63.9,42.1,30.34,East,96,2.0,8.0,45,0.00,,,0.00,meteohub,2013-02-01 19:49:00,
2013-02-01 13:54:00,64.0,41.7,30.34,SSE,149,3.0,7.0,44,0.00,,,0.00,meteohub,2013-02-01 19:54:00,
2013-02-01 13:59:00,64.4,42.1,30.34,NNE,32,0.0,7.0,44,0.00,,,0.00,meteohub,2013-02-01 19:59:00,
2013-02-01 14:04:00,64.8,43.0,30.34,NNE,15,3.0,7.0,45,0.00,,,0.00,meteohub,2013-02-01 20:04:00,
2013-02-01 14:09:00,64.9,41.9,30.33,ENE,73,0.0,7.0,43,0.00,,,0.00,meteohub,2013-02-01 20:09:00,
2013-02-01 14:14:00,65.3,42.3,30.33,North,355,3.0,7.0,43,0.00,,,0.00,meteohub,2013-02-01 20:14:00,
2013-02-01 14:19:00,65.5,43.0,30.33,North,355,4.0,7.0,44,0.00,,,0.00,meteohub,2013-02-01 20:19:00,
2013-02-01 14:24:00,65.5,42.4,30.33,NNE,15,5.0,8.0,43,0.00,,,0.00,meteohub,2013-02-01 20:24:00,
2013-02-01 14:29:00,65.5,41.7,30.33,NE,39,2.0,8.0,42,0.00,,,0.00,meteohub,2013-02-01 20:29:00,
2013-02-01 14:34:00,65.3,42.3,30.33,ENE,76,2.0,8.0,43,0.00,,,0.00,meteohub,2013-02-01 20:34:00,
2013-02-01 14:39:00,65.1,40.3,30.32,ESE,110,3.0,6.0,40,0.00,,,0.00,meteohub,2013-02-01 20:39:00,
2013-02-01 14:45:00,64.9,41.9,30.32,ENE,71,2.0,8.0,43,0.00,,,0.00,meteohub,2013-02-01 20:45:00,
2013-02-01 14:50:00,64.9,41.4,30.32,North,11,2.0,8.0,42,0.00,,,0.00,meteohub,2013-02-01 20:50:00,
2013-02-01 14:55:00,64.9,40.1,30.32,North,0,2.0,8.0,40,0.00,,,0.00,meteohub,2013-02-01 20:55:00,
2013-02-01 15:00:00,65.1,38.1,30.32,NNW,335,3.0,5.0,37,0.00,,,0.00,meteohub,2013-02-01 21:00:00,
2013-02-01 15:05:00,65.1,38.1,30.32,NNW,336,1.0,5.0,37,0.00,,,0.00,meteohub,2013-02-01 21:05:00,
2013-02-01 15:10:00,65.1,38.8,30.32,SW,216,0.0,5.0,38,0.00,,,0.00,meteohub,2013-02-01 21:10:00,
2013-02-01 15:15:00,65.7,39.4,30.31,ESE,112,2.0,5.0,38,0.00,,,0.00,meteohub,2013-02-01 21:15:00,
2013-02-01 15:20:00,65.7,40.6,30.31,ENE,61,2.0,5.0,40,0.00,,,0.00,meteohub,2013-02-01 21:20:00,
2013-02-01 15:25:00,65.1,38.8,30.31,East,100,1.0,5.0,38,0.00,,,0.00,meteohub,2013-02-01 21:25:00,
2013-02-01 15:30:00,64.9,38.7,30.31,ESE,113,0.0,7.0,38,0.00,,,0.00,meteohub,2013-02-01 21:30:00,
2013-02-01 15:35:00,64.9,38.7,30.31,East,89,3.0,7.0,38,0.00,,,0.00,meteohub,2013-02-01 21:35:00,
2013-02-01 15:40:00,64.8,37.9,30.31,ESE,102,0.0,6.0,37,0.00,,,0.00,meteohub,2013-02-01 21:40:00,
2013-02-01 15:45:00,64.8,39.9,30.31,SSW,213,2.0,6.0,40,0.00,,,0.00,meteohub,2013-02-01 21:45:00,
2013-02-01 15:50:00,65.3,39.0,30.31,ESE,118,1.0,6.0,38,0.00,,,0.00,meteohub,2013-02-01 21:50:00,
2013-02-01 15:55:00,65.3,39.0,30.31,ESE,107,1.0,4.0,38,0.00,,,0.00,meteohub,2013-02-01 21:55:00,
2013-02-01 16:00:00,65.8,39.6,30.31,ESE,104,0.0,4.0,38,0.00,,,0.00,meteohub,2013-02-01 22:00:00,
2013-02-01 16:05:00,65.7,37.9,30.31,East,90,2.0,5.0,36,0.00,,,0.00,meteohub,2013-02-01 22:05:00,
2013-02-01 16:10:00,65.1,38.1,30.31,ESE,111,1.0,5.0,37,0.00,,,0.00,meteohub,2013-02-01 22:10:00,
2013-02-01 16:15:00,64.9,39.4,30.31,East,89,1.0,5.0,39,0.00,,,0.00,meteohub,2013-02-01 22:15:00,
2013-02-01 16:20:00,64.9,38.1,30.31,East,86,1.0,5.0,37,0.00,,,0.00,meteohub,2013-02-01 22:20:00,
2013-02-01 16:25:00,64.9,38.1,30.31,ENE,78,0.0,5.0,37,0.00,,,0.00,meteohub,2013-02-01 22:25:00,
2013-02-01 16:30:00,64.9,39.4,30.31,NE,45,0.0,3.0,39,0.00,,,0.00,meteohub,2013-02-01 22:30:00,
2013-02-01 16:35:00,64.9,38.7,30.31,East,98,1.0,4.0,38,0.00,,,0.00,meteohub,2013-02-01 22:35:00,
2013-02-01 16:40:00,64.8,39.2,30.31,East,97,0.0,4.0,39,0.00,,,0.00,meteohub,2013-02-01 22:40:00,
2013-02-01 16:45:00,64.8,39.2,30.31,NE,51,1.0,4.0,39,0.00,,,0.00,meteohub,2013-02-01 22:45:00,
2013-02-01 16:50:00,64.8,39.2,30.30,NE,51,0.0,3.0,39,0.00,,,0.00,meteohub,2013-02-01 22:50:00,
2013-02-01 16:55:00,64.8,39.2,30.30,NE,51,0.0,2.0,39,0.00,,,0.00,meteohub,2013-02-01 22:55:00,
2013-02-01 17:00:00,64.8,39.9,30.30,NE,51,0.0,2.0,40,0.00,,,0.00,meteohub,2013-02-01 23:00:00,
2013-02-01 17:05:00,64.6,39.7,30.30,NE,51,0.0,1.0,40,0.00,,,0.00,meteohub,2013-02-01 23:05:00,
2013-02-01 17:10:00,64.4,38.8,30.30,NE,51,0.0,2.0,39,0.00,,,0.00,meteohub,2013-02-01 23:10:00,
2013-02-01 17:15:00,64.2,40.1,30.30,NE,51,0.0,2.0,41,0.00,,,0.00,meteohub,2013-02-01 23:15:00,
2013-02-01 17:20:00,64.0,40.5,30.30,NE,51,0.0,2.0,42,0.00,,,0.00,meteohub,2013-02-01 23:20:00,
2013-02-01 17:25:00,63.7,40.8,30.30,NE,51,0.0,1.0,43,0.00,,,0.00,meteohub,2013-02-01 23:25:00,
2013-02-01 17:30:00,63.1,40.8,30.30,NE,51,0.0,1.0,44,0.00,,,0.00,meteohub,2013-02-01 23:30:00,
2013-02-01 17:35:00,62.8,41.7,30.30,NE,51,0.0,1.0,46,0.00,,,0.00,meteohub,2013-02-01 23:35:00,
2013-02-01 17:41:00,62.2,41.2,30.30,NE,51,0.0,1.0,46,0.00,,,0.00,meteohub,2013-02-01 23:41:00,
2013-02-01 17:46:00,61.5,41.2,30.30,NE,51,0.0,0.0,47,0.00,,,0.00,meteohub,2013-02-01 23:46:00,
2013-02-01 17:51:00,61.2,40.3,30.30,NE,51,0.0,0.0,46,0.00,,,0.00,meteohub,2013-02-01 23:51:00,
2013-02-01 17:56:00,60.6,40.3,30.30,NE,51,0.0,0.0,47,0.00,,,0.00,meteohub,2013-02-01 23:56:00,
2013-02-01 18:01:00,60.1,40.8,30.30,NE,51,0.0,0.0,49,0.00,,,0.00,meteohub,2013-02-02 00:01:00,
2013-02-01 18:06:00,59.5,40.8,30.30,NE,51,0.0,0.0,50,0.00,,,0.00,meteohub,2013-02-02 00:06:00,
2013-02-01 18:11:00,59.2,40.1,30.30,NE,51,0.0,0.0,49,0.00,,,0.00,meteohub,2013-02-02 00:11:00,
2013-02-01 18:16:00,58.8,41.2,30.30,NE,51,0.0,0.0,52,0.00,,,0.00,meteohub,2013-02-02 00:16:00,
2013-02-01 18:21:00,58.5,40.5,30.30,NE,51,0.0,0.0,51,0.00,,,0.00,meteohub,2013-02-02 00:21:00,
2013-02-01 18:26:00,58.1,41.0,30.30,NE,51,0.0,0.0,53,0.00,,,0.00,meteohub,2013-02-02 00:26:00,
2013-02-01 18:31:00,57.7,40.6,30.30,NE,51,0.0,0.0,53,0.00,,,0.00,meteohub,2013-02-02 00:31:00,
2013-02-01 18:36:00,57.4,42.3,30.30,NE,51,0.0,0.0,57,0.00,,,0.00,meteohub,2013-02-02 00:36:00,
2013-02-01 18:41:00,56.7,42.1,30.30,NE,51,0.0,0.0,58,0.00,,,0.00,meteohub,2013-02-02 00:41:00,
2013-02-01 18:46:00,56.1,41.9,30.30,NE,51,0.0,0.0,59,0.00,,,0.00,meteohub,2013-02-02 00:46:00,
2013-02-01 18:51:00,55.8,42.1,30.31,NE,51,0.0,0.0,60,0.00,,,0.00,meteohub,2013-02-02 00:51:00,
2013-02-01 18:56:00,55.0,41.4,30.30,NE,51,0.0,0.0,60,0.00,,,0.00,meteohub,2013-02-02 00:56:00,
2013-02-01 19:01:00,54.7,41.5,30.31,NE,51,0.0,0.0,61,0.00,,,0.00,meteohub,2013-02-02 01:01:00,
2013-02-01 19:06:00,54.1,41.4,30.30,NE,51,0.0,0.0,62,0.00,,,0.00,meteohub,2013-02-02 01:06:00,
2013-02-01 19:11:00,53.8,39.7,30.30,NE,51,0.0,0.0,59,0.00,,,0.00,meteohub,2013-02-02 01:11:00,
2013-02-01 19:16:00,53.4,39.9,30.30,NE,51,0.0,0.0,60,0.00,,,0.00,meteohub,2013-02-02 01:16:00,
2013-02-01 19:21:00,53.2,39.7,30.30,NE,51,0.0,0.0,60,0.00,,,0.00,meteohub,2013-02-02 01:21:00,
2013-02-01 19:26:00,52.9,39.7,30.30,NE,51,0.0,0.0,61,0.00,,,0.00,meteohub,2013-02-02 01:26:00,
2013-02-01 19:31:00,52.9,40.3,30.30,NE,51,0.0,0.0,62,0.00,,,0.00,meteohub,2013-02-02 01:31:00,
2013-02-01 19:36:00,52.5,39.9,30.30,NE,51,0.0,0.0,62,0.00,,,0.00,meteohub,2013-02-02 01:36:00,
2013-02-01 19:41:00,52.3,40.5,30.31,NE,51,0.0,0.0,64,0.00,,,0.00,meteohub,2013-02-02 01:41:00,
2013-02-01 19:46:00,52.2,41.2,30.30,NE,51,0.0,0.0,66,0.00,,,0.00,meteohub,2013-02-02 01:46:00,
2013-02-01 19:51:00,52.0,41.4,30.31,NE,51,0.0,2.0,67,0.00,,,0.00,meteohub,2013-02-02 01:51:00,
2013-02-01 19:56:00,51.4,41.2,30.31,NE,51,0.0,2.0,68,0.00,,,0.00,meteohub,2013-02-02 01:56:00,
2013-02-01 20:01:00,51.3,41.0,30.31,NE,51,0.0,2.0,68,0.00,,,0.00,meteohub,2013-02-02 02:01:00,
2013-02-01 20:06:00,51.1,42.4,30.31,NE,51,0.0,0.0,72,0.00,,,0.00,meteohub,2013-02-02 02:06:00,
2013-02-01 20:11:00,50.7,42.1,30.31,NE,51,0.0,0.0,72,0.00,,,0.00,meteohub,2013-02-02 02:11:00,
2013-02-01 20:16:00,50.5,41.9,30.32,NE,51,0.0,0.0,72,0.00,,,0.00,meteohub,2013-02-02 02:16:00,
2013-02-01 20:22:00,50.2,41.5,30.32,WSW,252,2.0,0.0,72,0.00,,,0.00,meteohub,2013-02-02 02:22:00,
2013-02-01 20:27:00,50.2,40.1,30.32,South,169,0.0,4.0,68,0.00,,,0.00,meteohub,2013-02-02 02:27:00,
2013-02-01 20:32:00,50.5,40.5,30.32,South,169,0.0,4.0,68,0.00,,,0.00,meteohub,2013-02-02 02:32:00,
2013-02-01 20:37:00,51.1,41.2,30.32,South,169,0.0,4.0,69,0.00,,,0.00,meteohub,2013-02-02 02:37:00,
2013-02-01 20:42:00,51.3,41.9,30.32,South,169,0.0,3.0,70,0.00,,,0.00,meteohub,2013-02-02 02:42:00,
2013-02-01 20:47:00,51.1,41.2,30.32,South,169,0.0,2.0,69,0.00,,,0.00,meteohub,2013-02-02 02:47:00,
2013-02-01 20:52:00,51.1,41.2,30.32,South,169,0.0,2.0,69,0.00,,,0.00,meteohub,2013-02-02 02:52:00,
2013-02-01 20:57:00,51.3,41.0,30.32,South,169,0.0,2.0,68,0.00,,,0.00,meteohub,2013-02-02 02:57:00,
2013-02-01 21:02:00,51.4,41.9,30.32,South,169,2.0,2.0,70,0.00,,,0.00,meteohub,2013-02-02 03:02:00,
2013-02-01 21:07:00,51.1,41.7,30.33,South,169,0.0,2.0,70,0.00,,,0.00,meteohub,2013-02-02 03:07:00,
2013-02-01 21:12:00,51.1,42.1,30.32,South,169,0.0,2.0,71,0.00,,,0.00,meteohub,2013-02-02 03:12:00,
2013-02-01 21:17:00,50.7,41.7,30.33,South,169,0.0,2.0,71,0.00,,,0.00,meteohub,2013-02-02 03:17:00,
2013-02-01 21:22:00,50.4,42.1,30.33,South,169,2.0,2.0,73,0.00,,,0.00,meteohub,2013-02-02 03:22:00,
2013-02-01 21:27:00,50.2,41.5,30.33,South,169,0.0,3.0,72,0.00,,,0.00,meteohub,2013-02-02 03:27:00,
2013-02-01 21:32:00,49.8,41.5,30.33,South,169,0.0,3.0,73,0.00,,,0.00,meteohub,2013-02-02 03:32:00,
2013-02-01 21:37:00,49.8,42.3,30.33,South,169,0.0,3.0,75,0.00,,,0.00,meteohub,2013-02-02 03:37:00,
2013-02-01 21:42:00,49.5,41.9,30.33,South,169,0.0,2.0,75,0.00,,,0.00,meteohub,2013-02-02 03:42:00,
2013-02-01 21:47:00,49.5,41.9,30.33,South,169,0.0,2.0,75,0.00,,,0.00,meteohub,2013-02-02 03:47:00,
2013-02-01 21:52:00,49.3,42.1,30.33,South,169,0.0,2.0,76,0.00,,,0.00,meteohub,2013-02-02 03:52:00,
2013-02-01 21:57:00,49.1,42.3,30.33,South,169,0.0,2.0,77,0.00,,,0.00,meteohub,2013-02-02 03:57:00,
2013-02-01 22:02:00,48.9,42.1,30.33,South,169,0.0,3.0,77,0.00,,,0.00,meteohub,2013-02-02 04:02:00,
2013-02-01 22:07:00,48.9,42.4,30.33,South,169,1.0,3.0,78,0.00,,,0.00,meteohub,2013-02-02 04:07:00,
2013-02-01 22:12:00,49.3,41.7,30.33,South,169,1.0,3.0,75,0.00,,,0.00,meteohub,2013-02-02 04:12:00,
2013-02-01 22:17:00,49.3,42.1,30.33,South,169,1.0,3.0,76,0.00,,,0.00,meteohub,2013-02-02 04:17:00,
2013-02-01 22:22:00,49.3,42.1,30.33,South,169,0.0,3.0,76,0.00,,,0.00,meteohub,2013-02-02 04:22:00,
2013-02-01 22:27:00,49.5,42.3,30.33,South,169,0.0,3.0,76,0.00,,,0.00,meteohub,2013-02-02 04:27:00,
2013-02-01 22:32:00,49.3,42.4,30.33,South,169,0.0,3.0,77,0.00,,,0.00,meteohub,2013-02-02 04:32:00,
2013-02-01 22:37:00,49.5,43.2,30.34,South,169,1.0,2.0,79,0.00,,,0.00,meteohub,2013-02-02 04:37:00,
2013-02-01 22:42:00,49.8,43.9,30.33,South,169,2.0,2.0,80,0.00,,,0.00,meteohub,2013-02-02 04:42:00,
2013-02-01 22:47:00,50.2,44.2,30.33,South,169,0.0,2.0,80,0.00,,,0.00,meteohub,2013-02-02 04:47:00,
2013-02-01 22:52:00,50.4,44.4,30.33,South,169,0.0,3.0,80,0.00,,,0.00,meteohub,2013-02-02 04:52:00,
2013-02-01 22:57:00,50.2,44.2,30.34,South,169,0.0,3.0,80,0.00,,,0.00,meteohub,2013-02-02 04:57:00,
2013-02-01 23:00:00,49.8,43.9,30.34,South,169,0.0,3.0,80,0.00,,,0.00,meteohub,2013-02-02 05:00:00,
2013-02-01 23:01:00,49.8,43.5,30.34,South,169,0.0,3.0,79,0.00,,,0.00,meteohub,2013-02-02 05:01:00,
2013-02-01 23:06:00,49.5,44.2,30.33,South,169,0.0,2.0,82,0.00,,,0.00,meteohub,2013-02-02 05:06:00,
2013-02-01 23:11:00,49.3,44.1,30.33,South,169,0.0,1.0,82,0.00,,,0.00,meteohub,2013-02-02 05:11:00,
2013-02-01 23:16:00,49.1,44.4,30.33,South,169,0.0,0.0,84,0.00,,,0.00,meteohub,2013-02-02 05:16:00,
2013-02-01 23:21:00,49.1,44.8,30.33,South,169,0.0,0.0,85,0.00,,,0.00,meteohub,2013-02-02 05:21:00,
2013-02-01 23:26:00,48.9,44.6,30.33,South,169,0.0,0.0,85,0.00,,,0.00,meteohub,2013-02-02 05:26:00,
2013-02-01 23:31:00,48.9,45.0,30.33,South,169,0.0,0.0,86,0.00,,,0.00,meteohub,2013-02-02 05:31:00,
2013-02-01 23:36:00,48.9,45.1,30.34,South,169,0.0,0.0,87,0.00,,,0.00,meteohub,2013-02-02 05:36:00,
2013-02-01 23:41:00,49.1,45.3,30.34,South,169,0.0,0.0,87,0.00,,,0.00,meteohub,2013-02-02 05:41:00,
2013-02-01 23:46:00,48.9,45.0,30.34,South,169,0.0,0.0,86,0.00,,,0.00,meteohub,2013-02-02 05:46:00,
2013-02-01 23:51:00,48.7,45.0,30.33,South,169,0.0,0.0,87,0.00,,,0.00,meteohub,2013-02-02 05:51:00,
2013-02-01 23:56:00,48.6,44.8,30.33,South,169,0.0,0.0,87,0.00,,,0.00,meteohub,2013-02-02 05:56:00,